[[{"header":{"parameterUnit":"m.s-1","parameterCategory":1,"la1":30.2991,"la2":30.254,"lo1":-89.0895,"lo2":-89.0444,"dy":0.0017,"dx":0.0017,"nx":28,"ny":28,"refTime":"2024-04-23T21:00:00:Z","depth":0,"parameterNumber":2,"parameterNumberName":"U-component_of_WINDS"},"data":[0,0,0,0,0,0,0,0,0,0,0,0,0,0,0,0,0,0,0,0,0,0,0,0,0,0,0,0,0,0,0,0,0,0,0,0,0,0,0,0,0,0,0,0,0,0,0,0,0,0,0,0,0,0,0,0,0,0,-0.5977,-0.5977,0,-0.5988,-0.5989,-0.5989,-0.5994,-0.5994,-0.5994,-0.5994,-0.6005,-0.6006,-0.6006,0,0,0,0,0,0,0,0,0,0,0,0,0,-0.596,-0.596,-0.5977,-0.5977,-0.5977,-0.5988,-0.5989,-0.5989,-0.5994,-0.5994,-0.5994,-0.5994,-0.6005,-0.6005,-0.6006,0,0,0,0,0,0,0,0,0,0,0,0,0,-0.5969,-0.596,-0.5977,-0.5981,-0.5982,-0.5988,-0.5989,-0.5989,-0.5994,-0.5994,-0.5994,-0.5994,-0.6005,-0.6005,-0.6006,-0.6009,0,0,-0.6007,-0.6007,0,0,0,0,0,0,0,0,-0.5968,-0.5969,-0.5981,-0.5981,-0.5982,-0.599,-0.5987,-0.5995,-0.5994,-0.599,-0.5994,-0.5994,-0.6,-0.6001,-0.6003,-0.6009,-0.601,-0.6007,-0.6008,-0.6008,-0.6008,0,0,0,0,0,0,0,-0.5968,-0.5969,-0.5982,-0.5981,-0.5982,-0.5983,-0.5984,-0.5988,-0.5995,-0.599,-0.599,-0.5992,-0.6,-0.6003,-0.6003,-0.601,-0.6007,-0.6008,-0.6008,-0.6008,-0.6019,-0.6019,0,0,0,0,0,0,-0.5966,-0.5968,-0.5981,-0.5982,-0.5975,-0.5983,-0.5984,-0.5987,-0.5995,-0.5996,-0.5992,-0.5992,-0.6002,-0.6003,-0.6004,-0.6008,-0.6008,-0.6008,-0.6008,-0.6019,-0.6019,-0.6019,0,0,0,0,0,0,-0.5966,-0.5967,-0.5981,-0.5975,-0.5977,-0.5983,-0.5986,-0.5988,-0.599,-0.5996,-0.5997,-0.5993,-0.6002,-0.6003,-0.6007,-0.6008,-0.6008,-0.6009,-0.6019,-0.6019,-0.6019,-0.6015,0,0,0,0,0,0,-0.5965,-0.5967,-0.5969,-0.5975,-0.5977,-0.5984,-0.5987,-0.5988,-0.5991,-0.5991,-0.5997,-0.5998,-0.6002,-0.6007,-0.6008,-0.6009,-0.6009,-0.6019,-0.6019,-0.6019,-0.6015,-0.6015,-0.6015,0,0,0,0,0,-0.5965,-0.5967,-0.5969,-0.597,-0.5979,-0.5984,-0.5986,-0.599,-0.5991,-0.5992,-0.5996,-0.5998,-0.6008,-0.6007,-0.6008,-0.6009,-0.6019,-0.6019,-0.6019,-0.6015,-0.6015,-0.6015,0,0,0,0,0,0,-0.596,-0.5968,-0.597,-0.5974,-0.5979,-0.5985,-0.5987,-0.5989,-0.5994,-0.5994,-0.5999,-0.6,-0.6004,-0.6007,-0.6006,-0.6012,-0.6013,-0.6014,-0.601,-0.601,-0.601,-0.6009,-0.6009,0,0,0,0,0,-0.5959,-0.5963,-0.597,-0.5973,-0.5975,-0.5981,-0.5983,-0.5986,-0.5991,-0.5993,-0.5997,-0.6001,-0.6005,-0.6008,-0.6012,-0.6016,-0.6017,-0.6017,-0.6017,-0.6016,-0.6017,-0.6019,-0.6019,-0.6019,-0.6019,-0.6019,0,0,-0.5958,-0.5963,-0.5965,-0.5972,-0.5976,-0.598,-0.5982,-0.5986,-0.5989,-0.5993,-0.5998,-0.6001,-0.6006,-0.601,-0.6012,-0.6013,-0.6017,-0.6016,-0.6016,-0.6017,-0.6019,-0.6019,-0.6019,-0.6019,-0.6019,-0.6019,0,0,-0.5958,-0.5962,-0.5965,-0.5969,-0.5975,-0.5978,-0.5979,-0.5985,-0.5988,-0.5992,-0.5996,-0.5999,-0.6006,-0.6009,-0.6012,-0.6013,-0.6016,-0.6014,-0.6013,-0.6015,-0.6015,-0.6015,-0.6016,-0.6016,-0.6015,-0.6015,-0.6015,0,-0.5956,-0.5962,-0.5966,-0.597,-0.5973,-0.5977,-0.5981,-0.5984,-0.5991,-0.5993,-0.5993,-0.6002,-0.6006,-0.6011,-0.6011,-0.6013,-0.6014,-0.6014,-0.6015,-0.6015,-0.6015,-0.6016,-0.6016,-0.6014,-0.6014,-0.6014,-0.6014,0,-0.5959,-0.5963,-0.5964,-0.5971,-0.5974,-0.5978,-0.5983,-0.5985,-0.5988,-0.5992,-0.5996,-0.6001,-0.6006,-0.6007,-0.601,-0.6012,-0.6013,-0.6014,-0.6015,-0.6015,-0.6016,-0.6016,-0.6014,-0.6014,-0.6014,-0.6014,0,0,-0.5956,-0.5965,-0.5965,-0.5969,-0.5975,-0.5978,-0.5982,-0.5987,-0.5989,-0.5994,-0.5997,-0.6002,-0.6004,-0.6007,-0.601,-0.6012,-0.6012,-0.6013,-0.6013,-0.6013,-0.6016,-0.6014,-0.6015,-0.6014,-0.6014,-0.6014,-0.6015,0,-0.5956,-0.5963,-0.5968,-0.5973,-0.5976,-0.5981,-0.5984,-0.5988,-0.5991,-0.5995,-0.5998,-0.6002,-0.6004,-0.6006,-0.6008,-0.6012,-0.6013,-0.6012,-0.6017,-0.6017,-0.6015,-0.6015,-0.6014,-0.6015,-0.6015,-0.6015,-0.6015,0,-0.5958,-0.5963,-0.5968,-0.5975,-0.5976,-0.5979,-0.5984,-0.5988,-0.5992,-0.5995,-0.5998,-0.6001,-0.6005,-0.6006,-0.6011,-0.601,-0.6012,-0.6014,-0.6015,-0.6015,-0.6016,-0.6016,-0.6015,-0.6015,-0.6016,-0.6016,-0.6016,0,-0.5956,-0.5963,-0.5967,-0.597,-0.5977,-0.5979,-0.5982,-0.5987,-0.599,-0.5994,-0.5996,-0.6001,-0.6003,-0.6007,-0.6011,-0.6011,-0.6016,-0.6017,-0.6018,-0.6018,-0.6019,-0.6018,-0.6019,-0.602,-0.602,-0.602,-0.602,0,-0.5956,-0.5959,-0.5966,-0.5969,-0.5973,-0.5977,-0.5981,-0.5984,-0.5989,-0.5992,-0.5996,-0.5999,-0.6004,-0.6007,-0.6011,-0.6014,-0.6015,-0.6017,-0.6018,-0.6017,-0.6017,-0.6019,-0.6019,-0.602,-0.602,-0.602,-0.602,0,-0.5954,-0.5959,-0.5964,-0.597,-0.5972,-0.5974,-0.598,-0.5983,-0.5986,-0.599,-0.5992,-0.5997,-0.6001,-0.6006,-0.6012,-0.6014,-0.6018,-0.6019,-0.6016,-0.6016,-0.6017,-0.6017,-0.6018,-0.6019,-0.602,-0.602,-0.602,0,-0.5954,-0.5956,-0.5963,-0.5966,-0.5969,-0.5973,-0.5976,-0.5981,-0.5984,-0.599,-0.5992,-0.5996,-0.6,-0.6007,-0.6011,-0.6016,-0.6017,-0.6017,-0.6018,-0.6017,-0.6017,-0.6017,-0.6017,-0.6017,-0.6017,-0.6017,-0.6017,0,-0.5953,-0.5956,-0.596,-0.5965,-0.5969,-0.5973,-0.5977,-0.5979,-0.5984,-0.5987,-0.5992,-0.5995,-0.6001,-0.6006,-0.6011,-0.6014,-0.6016,-0.6017,-0.6017,-0.6016,-0.6015,-0.6016,-0.6016,-0.6017,-0.6017,-0.6017,-0.6017,-0.6017,-0.5952,-0.5955,-0.596,-0.5965,-0.5969,-0.5973,-0.5975,-0.5979,-0.5983,-0.5989,-0.5991,-0.5996,-0.6001,-0.6008,-0.6011,-0.6014,-0.6015,-0.6016,-0.6016,-0.6016,-0.6016,-0.6014,-0.6015,-0.6015,-0.6015,-0.6015,-0.6015,0,-0.5952,-0.5956,-0.596,-0.5966,-0.597,-0.5972,-0.5977,-0.598,-0.5984,-0.5988,-0.5992,-0.5997,-0.6002,-0.6006,-0.6011,-0.6013,-0.6014,-0.6014,-0.6014,-0.6015,-0.6015,-0.6014,-0.6013,-0.6013,-0.6013,-0.6013,-0.6013,-0.6013,-0.5953,-0.5957,-0.596,-0.5966,-0.597,-0.5975,-0.5977,-0.5981,-0.5984,-0.599,-0.5994,-0.5997,-0.6001,-0.6007,-0.6011,-0.6012,-0.6013,-0.6013,-0.6015,-0.6014,-0.6015,-0.6015,-0.6014,-0.6013,-0.6013,-0.6014,-0.6014,-0.6014]},{"header":{"parameterUnit":"m.s-1","parameterCategory":1,"la1":30.2991,"la2":30.254,"lo1":-89.0895,"lo2":-89.0444,"dy":0.0017,"dx":0.0017,"nx":28,"ny":28,"refTime":"2024-04-23T21:00:00:Z","depth":0,"parameterNumber":3,"parameterNumberName":"V-component_of_WINDS"},"data":[0,0,0,0,0,0,0,0,0,0,0,0,0,0,0,0,0,0,0,0,0,0,0,0,0,0,0,0,0,0,0,0,0,0,0,0,0,0,0,0,0,0,0,0,0,0,0,0,0,0,0,0,0,0,0,0,0,0,0.0695,0.0696,0,0.0785,0.0786,0.0787,0.0779,0.0778,0.0776,0.0775,0.0871,0.0874,0.0878,0,0,0,0,0,0,0,0,0,0,0,0,0,0.0517,0.052,0.0695,0.0696,0.0697,0.0785,0.0786,0.0788,0.0779,0.0778,0.0776,0.0774,0.0869,0.0874,0.0879,0,0,0,0,0,0,0,0,0,0,0,0,0,0.06,0.0522,0.0695,0.0704,0.0705,0.0785,0.0786,0.0788,0.078,0.0778,0.0776,0.0774,0.0868,0.0874,0.0879,0.0957,0,0,0.0897,0.0899,0,0,0,0,0,0,0,0,0.0595,0.0606,0.0701,0.0703,0.0705,0.0769,0.0759,0.0845,0.078,0.0752,0.0775,0.0773,0.0839,0.0847,0.0868,0.0961,0.0965,0.0897,0.0901,0.0903,0.0905,0,0,0,0,0,0,0,0.0589,0.0602,0.0731,0.0703,0.0705,0.0704,0.0713,0.0775,0.0806,0.0754,0.0754,0.0764,0.0839,0.0863,0.0871,0.0967,0.0897,0.0902,0.0906,0.0908,0.1126,0.1128,0,0,0,0,0,0,0.0581,0.0598,0.0728,0.0733,0.0644,0.0709,0.0719,0.0751,0.0805,0.0811,0.0766,0.0763,0.0854,0.0864,0.0874,0.0967,0.0903,0.0909,0.0912,0.1124,0.1126,0.1129,0,0,0,0,0,0,0.0577,0.0593,0.0724,0.0665,0.0682,0.0714,0.0749,0.0753,0.0777,0.0814,0.082,0.0784,0.0853,0.0866,0.0936,0.0971,0.0911,0.0917,0.1121,0.1124,0.1128,0.1155,0,0,0,0,0,0,0.0572,0.0592,0.0621,0.0666,0.0685,0.0784,0.0751,0.0757,0.0786,0.0784,0.0833,0.0839,0.0852,0.0927,0.0941,0.0977,0.0921,0.1118,0.1122,0.1127,0.1152,0.1159,0.1166,0,0,0,0,0,0.0566,0.0627,0.0623,0.0639,0.0723,0.0786,0.0797,0.081,0.0789,0.0819,0.0843,0.0837,0.0964,0.0934,0.095,0.0989,0.1116,0.1121,0.1126,0.1148,0.1158,0.1166,0,0,0,0,0,0,0.0587,0.0633,0.0629,0.0706,0.0742,0.0785,0.0823,0.082,0.0864,0.0861,0.0876,0.0887,0.0957,0.098,0.0946,0.1066,0.1037,0.1046,0.1048,0.1058,0.1065,0.1059,0.0926,0,0,0,0,0,0.06,0.0647,0.0685,0.0749,0.0767,0.0792,0.082,0.0827,0.0865,0.0881,0.091,0.0948,0.0996,0.1028,0.1075,0.1154,0.1165,0.1188,0.1196,0.1201,0.1209,0.1252,0.1263,0.1146,0.1146,0.1146,0,0,0.0629,0.0659,0.0688,0.0754,0.0783,0.0831,0.0805,0.0858,0.0894,0.0889,0.0957,0.0979,0.1023,0.1097,0.1131,0.1118,0.1243,0.1208,0.1212,0.1217,0.1258,0.1269,0.1279,0.115,0.1149,0.1148,0,0,0.0705,0.0733,0.0789,0.0818,0.0861,0.0876,0.089,0.0932,0.0947,0.1014,0.1011,0.1054,0.1137,0.1168,0.1195,0.128,0.1276,0.1295,0.1334,0.1375,0.1384,0.1392,0.1423,0.1433,0.1302,0.1302,0.1302,0,0.0736,0.0808,0.0818,0.0871,0.09,0.0895,0.0952,0.098,0.1036,0.1056,0.104,0.1143,0.1173,0.1254,0.1274,0.1296,0.1311,0.129,0.1382,0.139,0.1398,0.1427,0.1438,0.1304,0.1304,0.1304,0.1304,0,0.0843,0.0893,0.0933,0.0986,0.1019,0.1073,0.1092,0.1124,0.1127,0.1144,0.1212,0.1247,0.13,0.1319,0.1324,0.1401,0.1391,0.1378,0.135,0.1411,0.1438,0.145,0.1307,0.1306,0.1306,0.1305,0,0,0.0938,0.0993,0.1008,0.1031,0.1077,0.1116,0.117,0.122,0.1247,0.1286,0.1331,0.14,0.1388,0.1418,0.1426,0.1462,0.1526,0.1445,0.1446,0.1459,0.1613,0.1623,0.1635,0.1523,0.1526,0.1527,0.1609,0,0.1019,0.1113,0.1123,0.1207,0.1253,0.1248,0.1295,0.1328,0.1345,0.1387,0.1406,0.1455,0.1435,0.1453,0.1489,0.1511,0.1558,0.1505,0.1567,0.1569,0.1557,0.165,0.1661,0.1736,0.162,0.1622,0.1623,0,0.1127,0.1167,0.1255,0.1293,0.1312,0.1354,0.14,0.144,0.1477,0.1487,0.1519,0.1521,0.1577,0.1545,0.1622,0.1586,0.1611,0.1626,0.1629,0.1636,0.16,0.166,0.1761,0.1772,0.164,0.1639,0.1638,0,0.1187,0.1263,0.1325,0.1345,0.1391,0.142,0.144,0.1475,0.1504,0.1544,0.1563,0.161,0.1635,0.1671,0.1686,0.1662,0.1762,0.1731,0.1772,0.1771,0.1794,0.1793,0.1901,0.1809,0.1809,0.1809,0.1809,0,0.1278,0.1332,0.1352,0.1391,0.1451,0.1461,0.1521,0.154,0.1571,0.1613,0.1612,0.1652,0.1668,0.1711,0.1722,0.1784,0.1795,0.1805,0.1808,0.1806,0.1804,0.1823,0.1819,0.1812,0.1811,0.1811,0.181,0,0.1356,0.1371,0.1439,0.1475,0.1486,0.1529,0.156,0.1597,0.1612,0.1666,0.1679,0.1704,0.1753,0.1771,0.1832,0.1839,0.1911,0.1909,0.1898,0.1899,0.1938,0.1934,0.2063,0.208,0.1976,0.1977,0.1978,0,0.1413,0.1454,0.1494,0.1521,0.1542,0.1587,0.1615,0.1627,0.1657,0.1701,0.1733,0.1781,0.1821,0.1901,0.1925,0.1971,0.197,0.2012,0.1977,0.1973,0.1971,0.1968,0.1973,0.2019,0.202,0.2021,0.2022,0,0.1512,0.1517,0.1558,0.1601,0.1635,0.167,0.1703,0.1726,0.1742,0.1776,0.1826,0.1856,0.1917,0.1965,0.2012,0.2034,0.2031,0.2032,0.2044,0.2043,0.2035,0.2039,0.1916,0.2029,0.2029,0.2028,0.2028,0.2027,0.1582,0.1618,0.1651,0.1696,0.1722,0.1753,0.1789,0.1807,0.1849,0.1898,0.1902,0.1955,0.199,0.2052,0.2076,0.2118,0.2107,0.2124,0.2128,0.2133,0.2136,0.2027,0.2127,0.2127,0.2126,0.2126,0.2126,0,0.1681,0.1702,0.1743,0.1789,0.1824,0.1815,0.1852,0.1882,0.1929,0.1961,0.1999,0.2055,0.2102,0.2128,0.2174,0.2203,0.2203,0.2215,0.2214,0.2219,0.2143,0.2128,0.2214,0.2214,0.2214,0.2214,0.2214,0.2214,0.1737,0.1797,0.1806,0.1878,0.1898,0.1949,0.1971,0.1999,0.2024,0.2087,0.2125,0.2141,0.217,0.2219,0.2261,0.2267,0.2285,0.2298,0.2304,0.2233,0.2224,0.2215,0.2202,0.2302,0.2302,0.2375,0.2376,0.2377]}]]